Weather History for Tirstrup, Denmark

Change the Weather History Date:

Monday, April 7, 2014

  Actual Average Record
Temperature  
Mean Temperature 54 °F -  
Max Temperature 57 °F 52 °F 57 °F (2009)
Min Temperature 50 °F 36 °F 21 °F (2003)
Degree Days  
Heating Degree Days 12    
Growing Degree Days 4 (Base 50)    
Moisture  
Dew Point 49 °F    
Average Humidity 86    
Maximum Humidity 94    
Minimum Humidity 72    
Precipitation  
Precipitation 0.04 in - - ()
Sea Level Pressure  
Sea Level Pressure 29.84 in    
Wind  
Wind Speed 6 mph ()    
Max Wind Speed 13 mph    
Max Gust Speed -    
Visibility 4.6 miles    
Events Rain    
Averages and records for this station are not official NWS values.
T = Trace of Precipitation, MM = Missing Value Source: Averaged Metar Reports

Daily Weather History Graph

Daily Weather History Graph

Search for Another Location

Airport:

Trip Planner

Search our weather history database for the weather conditions in past years. The results will help you decide how hot, cold, wet, or windy it might be!

Date:

Astronomy

Apr. 07, 2014 Rise Set
Actual Time 6:32 AM CEST 8:08 PM CEST
Civil Twilight 5:53 AM CEST 8:47 PM CEST
Nautical Twilight 5:04 AM CEST 9:36 PM CEST
Astronomical Twilight 4:09 AM CEST 10:32 PM CEST
Moon 11:41 AM CEST (4/7) 3:06 AM CEST (4/7)
Length of Visible Light 14h 54m
Length of Day
13h 35m
Waxing Crescent, 51% of the Moon is Illuminated
Apr 7
Waxing Crescent
Apr 15
Full
Apr 22
Last Quarter
Apr 29
New
May 7
First Quarter

Hourly Weather History & Observations

Time (CEST) Temp. Dew Point Humidity Pressure Visibility Wind Dir Wind Speed Gust Speed Precip Events Conditions
12:00 AM 52 °F 49 °F 88% 29.88 in 3 mi SSW 3.5 mph - - Rain Rain
12:20 AM 51.8 °F 50.0 °F 94% 29.86 in - SW 5.8 mph - N/A   Overcast
12:50 AM 51.8 °F 50.0 °F 94% 29.86 in - SW 5.8 mph - N/A   Overcast
1:00 AM 51 °F 49 °F 91% 29.88 in 2 mi SSW 5.8 mph - - Rain Light Rain
1:20 AM 51.8 °F 48.2 °F 88% 29.86 in - SSW 5.8 mph - N/A   Mostly Cloudy
1:50 AM 51.8 °F 50.0 °F 94% 29.86 in - SW 6.9 mph - N/A Rain Light Rain Showers
2:00 AM 51 °F 49 °F 90% 29.87 in 3 mi SW 6.9 mph - - Rain Light Rain Showers
2:20 AM 51.8 °F 48.2 °F 88% 29.86 in - SW 6.9 mph - N/A Rain Light Rain
2:50 AM 51.8 °F 48.2 °F 88% 29.86 in - SW 6.9 mph - N/A   Light Drizzle
3:00 AM 51 °F 49 °F 89% 29.87 in 3 mi SW 6.9 mph - - Rain Rain
3:20 AM 51.8 °F 48.2 °F 88% 29.86 in 3.1 mi SW 6.9 mph - N/A   Overcast
3:50 AM 51.8 °F 48.2 °F 88% 29.83 in - SW 6.9 mph - N/A   Overcast
4:00 AM 51 °F 49 °F 88% 29.85 in 3 mi SW 5.8 mph - - Rain Drizzle
4:20 AM 51.8 °F 48.2 °F 88% 29.83 in - WSW 5.8 mph - N/A   Overcast
4:50 AM 51.8 °F 48.2 °F 88% 29.83 in 2.5 mi WSW 8.1 mph - N/A   Overcast
5:00 AM 51 °F 49 °F 89% 29.85 in 3 mi WSW 8.1 mph - -   Mist
5:20 AM 51.8 °F 48.2 °F 88% 29.83 in - SW 8.1 mph - N/A   Overcast
5:50 AM 51.8 °F 48.2 °F 88% 29.83 in 2.5 mi WSW 8.1 mph - N/A   Overcast
6:00 AM 51 °F 49 °F 90% 29.85 in 2 mi SW 8.1 mph - -   Mist
6:20 AM 51.8 °F 48.2 °F 88% 29.83 in - WSW 8.1 mph - N/A   Overcast
6:50 AM 51.8 °F 48.2 °F 88% 29.83 in - SW 8.1 mph - N/A   Overcast
7:00 AM 52 °F 49 °F 85% 29.85 in 3 mi SW 8.1 mph - -   Mist
7:20 AM 51.8 °F 48.2 °F 88% 29.83 in 3.1 mi WSW 5.8 mph - N/A   Overcast
7:50 AM 51.8 °F 48.2 °F 88% 29.83 in 3.7 mi SW 5.8 mph - N/A   Overcast
8:00 AM 52 °F 49 °F 86% 29.85 in 4 mi SW 5.8 mph - -   Mist
8:20 AM 51.8 °F 48.2 °F 88% 29.83 in 3.1 mi SW 8.1 mph - N/A   Overcast
8:50 AM 51.8 °F 48.2 °F 88% 29.83 in 3.1 mi WSW 8.1 mph - N/A   Overcast
9:00 AM 52 °F 49 °F 86% 29.86 in 3 mi WSW 8.1 mph - -   Mist
9:20 AM 51.8 °F 50.0 °F 94% 29.83 in 3.1 mi WSW 8.1 mph - N/A   Overcast
9:50 AM 51.8 °F 50.0 °F 94% 29.86 in 3.1 mi WSW 8.1 mph - N/A   Overcast
10:00 AM 52 °F 49 °F 88% 29.87 in 3 mi WSW 8.1 mph - -   Mist
10:20 AM 51.8 °F 50.0 °F 94% 29.86 in 3.1 mi WSW 6.9 mph - N/A   Overcast
10:50 AM 51.8 °F 50.0 °F 94% 29.86 in 3.1 mi WSW 9.2 mph - N/A   Overcast
11:00 AM 53 °F 49 °F 84% 29.88 in 4 mi WSW 9.2 mph - -   Mist
11:20 AM 51.8 °F 50.0 °F 94% 29.86 in 4.3 mi WSW 10.4 mph - N/A   Mostly Cloudy
11:50 AM 53.6 °F 50.0 °F 88% 29.86 in 5.0 mi WSW 10.4 mph - N/A   Overcast
12:00 PM 54 °F 50 °F 83% 29.88 in 6 mi WSW 12.7 mph - -   Mist
12:20 PM 55.4 °F 50.0 °F 82% 29.86 in 5.6 mi WSW 9.2 mph - N/A   Mostly Cloudy
12:50 PM 53.6 °F 50.0 °F 88% 29.86 in 5.6 mi SW 9.2 mph - N/A   Overcast
1:00 PM 54 °F 50 °F 82% 29.89 in 6 mi SW 9.2 mph - -   Mist
1:20 PM 55.4 °F 50.0 °F 82% 29.86 in 6.2 mi SW 6.9 mph - N/A   Overcast
1:50 PM 55.4 °F 50.0 °F 82% 29.86 in 6.2 mi WSW 6.9 mph - N/A   Overcast
2:00 PM 55 °F 50 °F 78% 29.89 in 6 mi SW 5.8 mph - -   Mist
2:20 PM 55.4 °F 50.0 °F 82% 29.86 in 6.2 mi SW 6.9 mph - N/A   Overcast
2:50 PM 57.2 °F 50.0 °F 77% 29.86 in 6.2 mi WSW 9.2 mph - N/A   Overcast
3:00 PM 57 °F 51 °F 74% 29.88 in 7 mi WSW 9.2 mph - -  
3:20 PM 57.2 °F 50.0 °F 77% 29.86 in 6.2 mi SW 9.2 mph - N/A   Mostly Cloudy
3:50 PM 57.2 °F 50.0 °F 77% 29.86 in 6.2 mi SW 6.9 mph - N/A   Overcast
4:00 PM 57 °F 51 °F 72% 29.87 in 9 mi SW 8.1 mph - -  
4:20 PM 57.2 °F 50.0 °F 77% 29.86 in 6.2 mi WSW 6.9 mph - N/A   Mostly Cloudy
4:50 PM 57.2 °F 50.0 °F 77% 29.83 in 6.2 mi SW 6.9 mph - N/A   Mostly Cloudy
5:00 PM 56 °F 50 °F 75% 29.86 in 4 mi SW 5.8 mph - - Rain Light Rain Showers
5:20 PM 55.4 °F 51.8 °F 88% 29.83 in 6.2 mi SSW 4.6 mph - N/A Rain Light Rain Showers
5:50 PM 55.4 °F 50.0 °F 82% 29.83 in 6.2 mi SW 6.9 mph - N/A   Mostly Cloudy
6:00 PM 56 °F 51 °F 77% 29.84 in 9 mi SSW 5.8 mph - - Rain Drizzle
6:20 PM 57.2 °F 50.0 °F 77% 29.83 in 6.2 mi SSW 6.9 mph - N/A   Mostly Cloudy
6:50 PM 55.4 °F 50.0 °F 82% 29.80 in 6.2 mi SW 5.8 mph - N/A   Mostly Cloudy
7:00 PM 55 °F 50 °F 78% 29.83 in 7 mi South 4.6 mph - -  
7:20 PM 55.4 °F 50.0 °F 82% 29.80 in 5.6 mi South 4.6 mph - N/A Rain Light Rain
7:50 PM 55.4 °F 50.0 °F 82% 29.80 in 5.6 mi South 3.5 mph - N/A   Overcast
8:00 PM 54 °F 50 °F 81% 29.82 in 5 mi South 3.5 mph - - Rain Rain
8:20 PM 53.6 °F 50.0 °F 88% 29.80 in 5.6 mi South 4.6 mph - N/A   Overcast
8:50 PM 53.6 °F 48.2 °F 82% 29.80 in 4.3 mi South 4.6 mph - N/A   Overcast
9:00 PM 53 °F 49 °F 83% 29.82 in 4 mi South 4.6 mph - -   Mist
9:20 PM 53.6 °F 50.0 °F 88% 29.80 in 4.3 mi South 4.6 mph - N/A   Mostly Cloudy
9:50 PM 53.6 °F 50.0 °F 88% 29.80 in 5.6 mi SSW 4.6 mph - N/A   Mostly Cloudy
10:00 PM 54 °F 50 °F 81% 29.81 in 7 mi South 3.5 mph - -  
10:20 PM 53.6 °F 50.0 °F 88% 29.80 in 5.0 mi South 3.5 mph - N/A   Mostly Cloudy
10:50 PM 53.6 °F 50.0 °F 88% 29.77 in 3.7 mi South 3.5 mph - N/A   Drizzle
11:00 PM 53 °F 49 °F 83% 29.80 in 3 mi South 3.5 mph - - Rain Drizzle
11:20 PM 51.8 °F 50.0 °F 94% 29.77 in - South 4.6 mph - N/A Rain Light Rain
11:50 PM 51.8 °F 48.2 °F 88% 29.77 in 1.6 mi South 5.8 mph - N/A Rain Light Rain